timestamp,surface_pressure_avg,surface_temp_avg,battery_voltage,lat,long
2021-12-14 00:09:00+00:00,264.5464,5.9,12.73,47.84626,-54.09684
2021-12-14 00:19:00+00:00,256.5547,5.89,12.73,47.84626,-54.09684
2021-12-14 00:29:00+00:00,244.1214,5.8,12.73,47.84626,-54.09684
2021-12-14 00:39:00+00:00,239.5547,5.89,12.73,47.84626,-54.09684
2021-12-14 00:49:00+00:00,237.5948,5.9,12.73,47.84626,-54.09684
2021-12-14 00:59:00+00:00,229.9714,5.9,12.73,47.84626,-54.09684
2021-12-14 01:09:00+00:00,224.8765,5.9,12.73,47.84626,-54.09684
2021-12-14 01:19:01+00:00,225.3331,5.9,12.73,47.84626,-54.09684
2021-12-14 01:29:01+00:00,225.5314,5.88,12.73,47.84626,-54.09684
2021-12-14 01:39:01+00:00,224.6981,5.9,12.73,47.84626,-54.09684
2021-12-14 01:49:01+00:00,222.8748,6.0,12.73,47.84626,-54.09684
2021-12-14 01:59:01+00:00,221.2347,6.0,12.73,47.84626,-54.09684
2021-12-14 02:09:01+00:00,224.1648,5.99,12.73,47.84626,-54.09684
2021-12-14 02:19:01+00:00,228.2264,6.0,12.73,47.84626,-54.09684
2021-12-14 02:29:01+00:00,230.9998,6.0,12.73,47.84626,-54.09684
2021-12-14 02:39:01+00:00,233.4981,6.0,12.73,47.84626,-54.09684
2021-12-14 02:49:01+00:00,237.1898,6.08,12.73,47.84626,-54.09684
2021-12-14 02:59:01+00:00,242.3081,6.0,12.73,47.84626,-54.09684
2021-12-14 03:09:01+00:00,245.0564,6.0,12.73,47.84626,-54.09684
2021-12-14 03:19:01+00:00,247.5114,6.0,12.65,47.84626,-54.09684
2021-12-14 03:29:01+00:00,256.2481,6.02,12.65,47.84626,-54.09684
2021-12-14 03:39:01+00:00,264.0231,6.0,12.65,47.84626,-54.09684
2021-12-14 03:49:01+00:00,263.8398,6.04,12.65,47.84626,-54.09684
2021-12-14 03:59:01+00:00,262.3064,6.0,12.65,47.84626,-54.09684
2021-12-14 04:09:01+00:00,269.1947,5.9,12.65,47.84626,-54.09684
2021-12-14 04:19:01+00:00,274.6213,5.8,12.65,47.84626,-54.09684
2021-12-14 04:29:01+00:00,273.7164,5.86,12.65,47.84626,-54.09684
2021-12-14 04:39:01+00:00,274.6964,6.19,12.65,47.84626,-54.09684
2021-12-14 04:49:01+00:00,281.9297,6.29,12.65,47.84626,-54.09684
2021-12-14 04:59:01+00:00,286.1664,6.32,12.65,47.84626,-54.09684
2021-12-14 05:09:01+00:00,287.8813,6.3,12.65,47.84626,-54.09684
2021-12-14 05:19:01+00:00,291.2331,6.19,12.65,47.84626,-54.09684
2021-12-14 05:29:01+00:00,297.1564,6.3,12.65,47.84626,-54.09684
2021-12-14 05:39:01+00:00,302.0464,6.3,12.65,47.84626,-54.09684
2021-12-14 05:49:01+00:00,302.0597,6.32,12.65,47.84626,-54.09684
2021-12-14 05:59:01+00:00,306.6281,6.3,12.65,47.84626,-54.09684
2021-12-14 06:09:01+00:00,308.2847,6.3,12.65,47.84626,-54.09684
2021-12-14 06:19:00+00:00,309.6714,6.3,12.65,47.84626,-54.09684
2021-12-14 06:29:00+00:00,314.0847,6.3,12.65,47.84626,-54.09684
2021-12-14 06:39:00+00:00,319.0162,6.28,12.65,47.84626,-54.09684
2021-12-14 06:49:00+00:00,326.4014,6.27,12.65,47.84626,-54.09684
2021-12-14 06:59:00+00:00,329.6812,6.3,12.65,47.84626,-54.09684
2021-12-14 07:09:00+00:00,333.3912,6.23,12.65,47.84626,-54.09684
2021-12-14 07:19:01+00:00,339.3312,6.2,12.65,47.84626,-54.09684
2021-12-14 07:29:01+00:00,338.0263,6.2,12.65,47.84626,-54.09684
2021-12-14 07:39:01+00:00,343.4480000000001,6.2,12.65,47.84626,-54.09684
2021-12-14 07:49:01+00:00,349.3297,6.2,12.65,47.84626,-54.09684
2021-12-14 07:59:01+00:00,353.0779,6.2,12.65,47.84626,-54.09684
2021-12-14 08:09:01+00:00,352.4113,6.26,12.65,47.84626,-54.09684
2021-12-14 08:19:00+00:00,349.798,6.2,12.65,47.84626,-54.09684
2021-12-14 08:29:00+00:00,351.9579,6.2,12.65,47.84626,-54.09684
2021-12-14 08:39:00+00:00,354.9413,6.2,12.65,47.84626,-54.09684
2021-12-14 08:49:00+00:00,354.153,6.2,12.65,47.84626,-54.09684
2021-12-14 08:59:00+00:00,350.7363,6.26,12.65,47.84626,-54.09684
2021-12-14 09:09:00+00:00,349.4163,6.29,12.65,47.84626,-54.09684
2021-12-14 09:19:00+00:00,351.6446,6.3,12.65,47.84626,-54.09684
2021-12-14 09:29:00+00:00,354.1913,6.3,12.65,47.84626,-54.09684
2021-12-14 09:39:00+00:00,350.1912,6.2,12.65,47.84626,-54.09684
2021-12-14 09:49:00+00:00,348.6646,6.2,12.65,47.84626,-54.09684
2021-12-14 09:59:00+00:00,351.9095,6.2,12.65,47.84626,-54.09684
2021-12-14 10:09:00+00:00,352.9178,6.21,12.65,47.84626,-54.09684
2021-12-14 10:19:00+00:00,344.3613,6.2,12.65,47.84626,-54.09684
2021-12-14 10:29:00+00:00,338.473,6.04,12.65,47.84626,-54.09684
2021-12-14 10:39:00+00:00,339.6246,6.1,12.65,47.84626,-54.09684
2021-12-14 10:49:00+00:00,332.358,6.0,12.65,47.84626,-54.09684
2021-12-14 10:59:00+00:00,320.4446,5.9,12.65,47.84626,-54.09684
2021-12-14 11:09:00+00:00,314.9214,5.83,12.65,47.84626,-54.09684
2021-12-14 11:19:00+00:00,309.743,6.05,12.65,47.84626,-54.09684
2021-12-14 11:29:00+00:00,303.1463,6.14,12.65,47.84626,-54.09684
2021-12-14 11:39:00+00:00,291.318,6.19,12.65,47.84626,-54.09684
2021-12-14 11:49:00+00:00,287.5964,6.14,12.65,47.84626,-54.09684
2021-12-14 11:59:00+00:00,283.9913,6.15,12.65,47.84626,-54.09684
2021-12-14 12:09:00+00:00,279.8447,6.1,12.65,47.84626,-54.09684
2021-12-14 12:19:00+00:00,269.7797,6.18,12.65,47.84626,-54.09684
2021-12-14 12:29:00+00:00,263.1681,6.23,12.65,47.84626,-54.09684
2021-12-14 12:39:00+00:00,262.0831,6.2,12.65,47.84626,-54.09684
2021-12-14 12:49:00+00:00,261.2981,6.2,12.65,47.84626,-54.09684
2021-12-14 12:59:00+00:00,249.8365,6.1,12.65,47.84626,-54.09684
2021-12-14 13:09:00+00:00,241.2831,6.1,12.65,47.84626,-54.09684
2021-12-14 13:19:00+00:00,243.9881,6.09,12.65,47.84626,-54.09684
2021-12-14 13:29:00+00:00,247.4964,6.14,12.65,47.84626,-54.09684
2021-12-14 13:39:00+00:00,245.7481,6.2,12.65,47.84626,-54.09684
2021-12-14 13:49:00+00:00,244.2331,6.2,12.65,47.84626,-54.09684
2021-12-14 13:59:00+00:00,248.9014,6.2,12.65,47.84626,-54.09684
2021-12-14 14:09:00+00:00,248.0097,6.24,12.65,47.84626,-54.09684
2021-12-14 14:19:01+00:00,243.8631,6.28,12.73,47.84626,-54.09684
2021-12-14 14:29:01+00:00,242.6431,6.29,12.73,47.84626,-54.09684
2021-12-14 14:39:01+00:00,243.5331,6.3,12.73,47.84626,-54.09684
2021-12-14 14:49:01+00:00,241.2464,6.29,12.73,47.84626,-54.09684
2021-12-14 14:59:01+00:00,239.4148,6.29,12.73,47.84626,-54.09684
2021-12-14 15:09:01+00:00,243.7481,6.28,12.73,47.84626,-54.09684
2021-12-14 15:19:00+00:00,249.4747,6.28,12.81,47.84626,-54.09684
2021-12-14 15:29:00+00:00,250.3815,6.29,12.81,47.84626,-54.09684
2021-12-14 15:39:00+00:00,247.1648,6.29,12.81,47.84626,-54.09684
2021-12-14 15:49:00+00:00,249.9864,6.27,12.81,47.84626,-54.09684
2021-12-14 15:59:00+00:00,256.5397,6.29,12.81,47.84626,-54.09684
2021-12-14 16:09:00+00:00,259.203,6.3,12.81,47.84626,-54.09684
2021-12-14 16:19:00+00:00,257.368,6.3,12.89,47.84626,-54.09684
2021-12-14 16:29:00+00:00,259.7431,6.3,12.89,47.84626,-54.09684
2021-12-14 16:39:00+00:00,261.8431,6.3,12.89,47.84626,-54.09684
2021-12-14 16:49:00+00:00,261.4981,6.3,12.89,47.84626,-54.09684
2021-12-14 16:59:00+00:00,259.7464,6.3,12.89,47.84626,-54.09684
2021-12-14 17:09:00+00:00,261.5381,6.3,12.89,47.84626,-54.09684
2021-12-14 17:19:01+00:00,260.1147,6.3,12.81,47.84626,-54.09684
2021-12-14 17:29:01+00:00,260.5214,6.34,12.81,47.84626,-54.09684
2021-12-14 17:39:01+00:00,262.558,6.4,12.81,47.84626,-54.09684
2021-12-14 17:49:01+00:00,267.0547,6.3,12.81,47.84626,-54.09684
2021-12-14 17:59:01+00:00,266.9548,6.3,12.81,47.84626,-54.09684
2021-12-14 18:09:01+00:00,273.9864,6.35,12.81,47.84626,-54.09684
2021-12-14 18:19:00+00:00,280.778,6.3,12.73,47.84626,-54.09684
2021-12-14 18:29:00+00:00,285.1664,6.3,12.73,47.84626,-54.09684
2021-12-14 18:39:00+00:00,285.9197,6.32,12.73,47.84626,-54.09684
2021-12-14 18:49:00+00:00,293.7847,6.37,12.73,47.84626,-54.09684
2021-12-14 18:59:00+00:00,294.5947,6.37,12.73,47.84626,-54.09684
2021-12-14 19:09:00+00:00,296.9064,6.48,12.73,47.84626,-54.09684
2021-12-14 19:19:00+00:00,301.4948,6.59,12.65,47.84626,-54.09684
2021-12-14 19:29:00+00:00,311.473,6.68,12.65,47.84626,-54.09684
2021-12-14 19:39:00+00:00,314.0763,6.7,12.65,47.84626,-54.09684
2021-12-14 19:49:00+00:00,317.8746,6.79,12.65,47.84626,-54.09684
2021-12-14 19:59:00+00:00,321.803,6.8,12.65,47.84626,-54.09684
2021-12-14 20:09:00+00:00,329.673,6.8,12.65,47.84626,-54.09684
2021-12-14 20:19:00+00:00,336.1429,6.89,12.65,47.84626,-54.09684
2021-12-14 20:29:00+00:00,336.5162,6.84,12.65,47.84626,-54.09684
2021-12-14 20:39:00+00:00,334.8896,6.8,12.65,47.84626,-54.09684
2021-12-14 20:49:00+00:00,338.7147,6.86,12.65,47.84626,-54.09684
2021-12-14 20:59:00+00:00,336.8013,6.9,12.65,47.84626,-54.09684
2021-12-14 21:09:00+00:00,330.2963,6.9,12.65,47.84626,-54.09684
2021-12-14 21:19:00+00:00,326.0946,6.9,12.57,47.84626,-54.09684
2021-12-14 21:29:00+00:00,326.7296,6.89,12.57,47.84626,-54.09684
2021-12-14 21:39:00+00:00,323.6397,6.8,12.57,47.84626,-54.09684
2021-12-14 21:49:00+00:00,319.8963,6.8,12.57,47.84626,-54.09684
2021-12-14 21:59:00+00:00,323.3197,6.8,12.57,47.84626,-54.09684
2021-12-14 22:09:00+00:00,324.1096,6.8,12.57,47.84626,-54.09684
2021-12-14 22:19:00+00:00,318.0213,6.78,12.57,47.84626,-54.09684
2021-12-14 22:29:00+00:00,311.8297,6.7,12.57,47.84626,-54.09684
2021-12-14 22:39:00+00:00,307.9064,6.7,12.57,47.84626,-54.09684
2021-12-14 22:49:00+00:00,302.4514,6.6,12.57,47.84626,-54.09684
2021-12-14 22:59:00+00:00,294.9447,6.7,12.57,47.84626,-54.09684
2021-12-14 23:09:00+00:00,292.3214,6.7,12.57,47.84626,-54.09684
2021-12-14 23:19:01+00:00,290.098,6.67,12.57,47.84626,-54.09684
2021-12-14 23:29:01+00:00,277.1898,6.79,12.57,47.84626,-54.09684
2021-12-14 23:39:01+00:00,270.2464,6.7,12.57,47.84626,-54.09684
2021-12-14 23:49:01+00:00,265.7414,6.73,12.57,47.84626,-54.09684
2021-12-14 23:59:01+00:00,259.0214,6.49,12.57,47.84626,-54.09684
